Starlink 5594

operational
NORAD ID: 55742 Int'l Des: 2023-028 Owner: SPXS Country: US Constellation: starlink
LEOCIRCULAR

About Starlink 5594

Description loading...

Live Position

Loading 3D Globe...

Upcoming Passes

Altitude History

Altitude vs Time

uPlot chart will show altitude changes over time

Two-Line Element Set

1 55742U 23028B 25352.68975005 -.00002738 00000-0 -22188-3 0 9991
2 55742 70.0007 88.8289 0003344 268.8836 91.1940 14.98311182153907
Epoch: Dec 18, 2025 • Age: 14 hours

Current Status

Altitude 594.5 km
Velocity 7.56 km/s
Sub-Earth Point -66.83°S, 139.23°E
Launch Date Mar 3, 2023
Age 2.7 years
Type internet

Technical Details

Classification Payload
Mass 305.00 kg
Dry Mass 290.00 kg
Total Mass 305.00 kg
Length 0.20 m
Diameter 2.80 m
Span 9.00 m
Shape Box + pan
Manufacturer SPXS
Bus Type Starlink
Phase Status In Orbit
Owner/State SPXS/US

Large Constellations

Loading constellations...